| time (UTC) | temp F | wind direction | speed MPH | gust MPH | rain 1hr in | rain 24hr in | rain mn in | humidity % | barometer mb |
| 20260506183056 | 34 | 110 | 2.0 | 0.0 | 0.00 | 0.00 | 0.10 | 97 | 1016.3 |
| 20260506181550 | 34 | 42 | 4.0 | 0.0 | 0.00 | 0.00 | 0.08 | 97 | 1016.3 |
| 20260506180051 | 34 | 23 | 4.0 | 0.0 | 0.00 | 0.00 | 0.07 | 97 | 1016.2 |
| 20260506174549 | 33 | 59 | 3.0 | 0.0 | 0.00 | 0.00 | 0.06 | 97 | 1016.8 |
| 20260506173050 | 31 | 356 | 5.0 | 0.0 | 0.00 | 0.00 | 0.05 | 97 | 1016.8 |
| 20260506171555 | 32 | 358 | 6.0 | 0.0 | 0.00 | 0.00 | 0.05 | 97 | 1015.8 |
| 20260506170047 | 32 | 35 | 4.0 | 0.0 | 0.00 | 0.00 | 0.04 | 97 | 1015.7 |
| 20260506164545 | 32 | 322 | 5.0 | 0.0 | 0.00 | 0.00 | 0.04 | 97 | 1015.3 |
| 20260506163045 | 32 | 298 | 4.0 | 0.0 | 0.00 | 0.00 | 0.03 | 97 | 1014.9 |
| 20260506161541 | 33 | 15 | 0.0 | 0.0 | 0.00 | 0.00 | 0.02 | 97 | 1014.9 |
| 20260506160041 | 33 | 208 | 0.0 | 0.0 | 0.00 | 0.00 | 0.02 | 97 | 1014.9 |
| 20260506154542 | 32 | 216 | 0.0 | 0.0 | 0.00 | 0.00 | 0.02 | 97 | 1015.0 |
| 20260506153041 | 32 | 309 | 0.0 | 0.0 | 0.00 | 0.00 | 0.01 | 97 | 1014.8 |
| 20260506151538 | 32 | 312 | 0.0 | 0.0 | 0.00 | 0.00 | 0.01 | 97 | 1014.5 |
| 20260506150038 | 32 | 313 | 0.0 | 0.0 | 0.00 | 0.00 | 0.01 | 97 | 1014.4 |
| 20260506144546 | 33 | 313 | 0.0 | 0.0 | 0.00 | 0.00 | 0.01 | 97 | 1014.8 |
| 20260506143037 | 32 | 313 | 0.0 | 0.0 | 0.00 | 0.00 | 0.01 | 97 | 1014.2 |
| 20260506141536 | 32 | 313 | 0.0 | 0.0 | 0.00 | 0.00 | 0.00 | 97 | 1014.0 |
| 20260506140052 | 32 | 312 | 0.0 | 0.0 | 0.00 | 0.00 | 0.00 | 97 | 1014.1 |
| 20260506134538 | 32 | 312 | 0.0 | 0.0 | 0.00 | 0.00 | 0.00 | 97 | 1013.8 |
| 20260506133044 | 32 | 312 | 0.0 | 0.0 | 0.00 | 0.00 | 0.00 | 97 | 1013.8 |
| 20260506131536 | 33 | 312 | 0.0 | 0.0 | 0.00 | 0.00 | 0.00 | 97 | 1013.2 |
| 20260506130037 | 33 | 312 | 0.0 | 0.0 | 0.00 | 0.00 | 0.00 | 97 | 1013.5 |
| 20260506124533 | 32 | 312 | 0.0 | 0.0 | 0.00 | 0.00 | 0.00 | 97 | 1013.1 |
| 20260506123033 | 32 | 312 | 0.0 | 0.0 | 0.00 | 0.00 | 0.00 | 97 | 1013.5 |
| 20260506121532 | 31 | 312 | 0.0 | 0.0 | 0.00 | 0.00 | 0.00 | 97 | 1013.4 |
| 20260506120037 | 32 | 312 | 0.0 | 0.0 | 0.00 | 0.00 | 0.00 | 97 | 1012.5 |
| 20260506114531 | 32 | 312 | 0.0 | 0.0 | 0.00 | 0.00 | 0.00 | 97 | 1012.9 |
| 20260506113031 | 32 | 312 | 0.0 | 0.0 | 0.00 | 0.00 | 0.00 | 97 | 1012.9 |
| 20260506111530 | 31 | 312 | 0.0 | 0.0 | 0.00 | 0.00 | 0.00 | 97 | 1012.1 |
| 20260506110033 | 32 | 312 | 0.0 | 0.0 | 0.00 | 0.00 | 0.00 | 97 | 1012.1 |
| 20260506104528 | 32 | 312 | 0.0 | 0.0 | 0.00 | 0.00 | 0.00 | 97 | 1012.1 |
| 20260506103032 | 32 | 312 | 0.0 | 0.0 | 0.00 | 0.00 | 0.00 | 97 | 1012.3 |
| 20260506101538 | 32 | 312 | 0.0 | 0.0 | 0.00 | 0.00 | 0.00 | 97 | 1011.5 |
| 20260506100031 | 33 | 312 | 0.0 | 0.0 | 0.00 | 0.00 | 0.00 | 97 | 1012.0 |
| 20260506094528 | 32 | 312 | 0.0 | 0.0 | 0.00 | 0.00 | 0.00 | 97 | 1011.6 |
| 20260506093025 | 32 | 312 | 0.0 | 0.0 | 0.00 | 0.00 | 0.00 | 97 | 1011.6 |
| 20260506091524 | 32 | 312 | 0.0 | 0.0 | 0.00 | 0.00 | 0.00 | 97 | 1010.6 |
| 20260506090023 | 32 | 312 | 0.0 | 0.0 | 0.00 | 0.00 | 0.00 | 97 | 1010.7 |
| 20260506084532 | 32 | 312 | 0.0 | 0.0 | 0.00 | 0.00 | 0.00 | 97 | 1010.2 |
| 20260506083023 | 34 | 312 | 0.0 | 0.0 | 0.00 | 0.00 | 0.00 | 97 | 1010.8 |
| 20260506081523 | 33 | 311 | 0.0 | 0.0 | 0.00 | 0.00 | 0.00 | 97 | 1011.1 |
| 20260506073017 | 32 | 310 | 0.0 | 0.0 | 0.00 | 0.00 | 0.00 | 97 | 1010.7 |
| 20260506071516 | 32 | 310 | 0.0 | 0.0 | 0.00 | 0.00 | 0.00 | 97 | 1010.8 |
| 20260506061511 | 32 | 310 | 0.0 | 0.0 | 0.00 | 0.00 | 0.16 | 97 | 1010.1 |
| 20260506044509 | 33 | 310 | 0.0 | 0.0 | 0.00 | 0.00 | 0.16 | 96 | 1010.5 |
| 20260506043008 | 33 | 310 | 0.0 | 0.0 | 0.00 | 0.00 | 0.16 | 96 | 1010.5 |
| 20260506041507 | 33 | 310 | 0.0 | 0.0 | 0.00 | 0.00 | 0.16 | 97 | 1010.4 |
| 20260506040010 | 33 | 310 | 0.0 | 0.0 | 0.00 | 0.00 | 0.16 | 97 | 1010.4 |
| 20260506034506 | 33 | 310 | 0.0 | 0.0 | 0.00 | 0.00 | 0.16 | 97 | 1010.1 |
| 20260506033006 | 33 | 310 | 0.0 | 0.0 | 0.00 | 0.00 | 0.16 | 97 | 1009.8 |
| 20260506031504 | 33 | 310 | 0.0 | 0.0 | 0.00 | 0.00 | 0.16 | 96 | 1009.7 |
| 20260506030004 | 33 | 310 | 0.0 | 0.0 | 0.00 | 0.00 | 0.16 | 96 | 1009.3 |
| 20260506024503 | 33 | 310 | 0.0 | 0.0 | 0.00 | 0.00 | 0.16 | 96 | 1009.1 |
| 20260506023003 | 33 | 310 | 0.0 | 0.0 | 0.00 | 0.00 | 0.16 | 96 | 1008.8 |
| 20260506021501 | 33 | 310 | 0.0 | 0.0 | 0.00 | 0.00 | 0.16 | 96 | 1009.0 |
| 20260506020001 | 33 | 310 | 0.0 | 0.0 | 0.00 | 0.00 | 0.16 | 96 | 1008.8 |
| 20260506014603 | 33 | 311 | 0.0 | 0.0 | 0.00 | 0.00 | 0.16 | 96 | 1008.9 |
| 20260506013106 | 33 | 310 | 0.0 | 0.0 | 0.00 | 0.00 | 0.16 | 96 | 1008.5 |
| 20260506011559 | 33 | 329 | 0.0 | 0.0 | 0.00 | 0.00 | 0.16 | 96 | 1008.3 |
| 20260506010117 | 33 | 308 | 0.0 | 0.0 | 0.00 | 0.00 | 0.16 | 96 | 1008.6 |
| 20260506004558 | 33 | 316 | 0.0 | 0.0 | 0.00 | 0.00 | 0.16 | 96 | 1008.3 |